Pellston, MI

3:12 PM EDT on July 24, 2016 (GMT -0400)
Pellston Regional Airport Of Emmet County

Weather History for KPLN - November, 2013

Change the Weather History Date:

Saturday, November 9, 2013

  Actual Average Record
Temperature  
Mean Temperature 38 °F -  
Max Temperature 44 °F 43 °F 68 °F (1999)
Min Temperature 33 °F 31 °F 16 °F (2014)
Degree Days  
Heating Degree Days 26    
Moisture  
Dew Point 35 °F    
Average Humidity 87    
Maximum Humidity 97    
Minimum Humidity 67    
Precipitation  
Precipitation 0.50 in - - ()
Sea Level Pressure  
Sea Level Pressure 29.74 in    
Wind  
Wind Speed 9 mph (South)    
Max Wind Speed 23 mph    
Max Gust Speed 32 mph    
Visibility 6 miles    
Events Rain , Snow    
Averages and records for this station are not official NWS values.
T = Trace of Precipitation, MM = Missing Value Source: NWS Daily Summary

Daily Weather History Graph

Daily Weather History Graph

Search for Another Location

Airport or City:

Trip Planner

Search our weather history database for the weather conditions in past years. The results will help you decide how hot, cold, wet, or windy it might be!

Date:

Astronomy

Nov. 09, 2013 Rise Set
Actual Time 7:30 AM EST 5:15 PM EST
Civil Twilight 6:58 AM EST 5:46 PM EST
Nautical Twilight 6:23 AM EST 6:22 PM EST
Astronomical Twilight 5:48 AM EST 6:57 PM EST
Moon 1:03 PM EST (11/9) 11:48 PM EST (11/9)
Length of Visible Light 10h 47m
Length of Day
9h 44m
Waxing Crescent, 44% of the Moon is Illuminated
Nov 9
Waxing Crescent
Nov 10
First Quarter
Nov 17
Full
Nov 25
Last Quarter
Dec 2
New

Hourly Weather History & Observations

Time (EST) Temp. Windchill Dew Point Humidity Pressure Visibility Wind Dir Wind Speed Gust Speed Precip Events Conditions
12:54 AM 35.1 °F 31.0 °F 28.9 °F 78% 30.08 in 10.0 mi SSE 4.6 mph - N/A   Overcast
1:54 AM 34.0 °F 28.8 °F 28.9 °F 82% 30.03 in 10.0 mi ESE 5.8 mph - 0.00 in   Overcast
2:54 AM 36.0 °F 31.1 °F 30.0 °F 79% 29.99 in 10.0 mi SSE 5.8 mph - N/A   Overcast
3:54 AM 37.0 °F 29.3 °F 28.0 °F 70% 29.91 in 10.0 mi SE 11.5 mph - N/A   Overcast
4:54 AM 35.1 °F 26.4 °F 30.0 °F 82% 29.89 in 2.5 mi SSE 12.7 mph 20.7 mph 0.01 in Snow Light Snow
5:02 AM 33.8 °F 25.8 °F 30.2 °F 87% 29.86 in 1.2 mi SE 10.4 mph 19.6 mph 0.02 in Snow Light Snow
5:09 AM 33.8 °F 26.4 °F 30.2 °F 87% 29.85 in 1.0 mi SE 9.2 mph - 0.03 in Snow Light Snow
5:22 AM 33.8 °F 26.4 °F 30.2 °F 87% 29.84 in 1.0 mi SE 9.2 mph - 0.06 in Snow Light Snow
5:49 AM 33.8 °F 25.3 °F 30.2 °F 87% 29.82 in 0.8 mi SE 11.5 mph - 0.11 in Snow Light Snow
5:54 AM 33.1 °F 24.4 °F 30.9 °F 92% 29.84 in 0.8 mi SSE 11.5 mph - 0.12 in Snow Light Snow
6:31 AM 33.8 °F 25.3 °F 30.2 °F 87% 29.79 in 1.0 mi SE 11.5 mph - 0.06 in Snow Light Snow
6:46 AM 33.8 °F 25.8 °F 32.0 °F 93% 29.79 in 0.8 mi SE 10.4 mph - 0.09 in Snow Light Snow
6:54 AM 33.1 °F 25.5 °F 32.0 °F 96% 29.81 in 0.8 mi SE 9.2 mph - 0.10 in Snow Light Snow
7:11 AM 33.8 °F 26.4 °F 30.2 °F 87% 29.78 in 1.2 mi SE 9.2 mph - 0.02 in Snow Light Snow
7:32 AM 33.8 °F 25.8 °F 30.2 °F 87% 29.76 in 2.5 mi SE 10.4 mph - 0.03 in Snow Light Snow
7:44 AM 33.8 °F 25.3 °F 32.0 °F 93% 29.76 in 5.0 mi SE 11.5 mph - 0.03 in Snow Light Snow
7:54 AM 33.1 °F 24.9 °F 32.0 °F 96% 29.78 in 9.0 mi SE 10.4 mph - 0.03 in   Overcast
8:35 AM 33.8 °F 25.3 °F 32.0 °F 93% 29.73 in 8.0 mi SE 11.5 mph - 0.00 in   Overcast
8:54 AM 34.0 °F 27.2 °F 32.0 °F 92% 29.75 in 8.0 mi SE 8.1 mph - 0.00 in   Overcast
9:54 AM 36.0 °F 29.0 °F 33.1 °F 89% 29.71 in 8.0 mi SSE 9.2 mph - N/A   Overcast
10:54 AM 37.0 °F 32.4 °F 34.0 °F 89% 29.68 in 8.0 mi SSE 5.8 mph - N/A   Overcast
11:43 AM 37.4 °F 32.8 °F 35.6 °F 93% 29.64 in 9.0 mi SSE 5.8 mph - N/A   Overcast
11:52 AM 39.2 °F 35.0 °F 35.6 °F 87% 29.64 in 8.0 mi SSE 5.8 mph - N/A   Overcast
11:54 AM 39.0 °F 35.7 °F 36.0 °F 89% 29.66 in 8.0 mi South 4.6 mph - N/A   Overcast
12:54 PM 43.0 °F 37.7 °F 39.0 °F 86% 29.64 in 8.0 mi South 9.2 mph - 0.01 in Rain Light Rain
1:26 PM 42.8 °F 39.3 °F 41.0 °F 93% 29.62 in 4.0 mi SW 5.8 mph - 0.03 in Rain Light Rain
1:47 PM 42.8 °F 39.3 °F 41.0 °F 93% 29.61 in 2.0 mi SW 5.8 mph - 0.04 in Rain Light Rain
1:50 PM 42.8 °F 40.1 °F 41.0 °F 93% 29.61 in 2.0 mi SSW 4.6 mph - 0.04 in Rain Light Rain
1:54 PM 43.0 °F 39.5 °F 42.1 °F 97% 29.63 in 2.0 mi SSW 5.8 mph - 0.05 in Rain Light Rain
2:26 PM 44.6 °F 40.7 °F 42.8 °F 93% 29.61 in 2.5 mi WSW 6.9 mph - 0.02 in Rain Light Rain
2:34 PM 44.6 °F 40.7 °F 42.8 °F 93% 29.61 in 2.5 mi WSW 6.9 mph - 0.03 in Rain Light Rain
2:49 PM 44.6 °F 41.4 °F 42.8 °F 93% 29.62 in 2.5 mi West 5.8 mph - 0.03 in Rain Light Rain
2:54 PM 44.1 °F 40.8 °F 42.1 °F 93% 29.64 in 2.5 mi West 5.8 mph - 0.04 in Rain Light Rain
3:37 PM 42.8 °F 38.0 °F 41.0 °F 93% 29.63 in 3.0 mi West 8.1 mph - 0.03 in Rain Light Rain
3:51 PM 42.8 °F 38.6 °F 39.2 °F 87% 29.64 in 4.0 mi West 6.9 mph 17.3 mph 0.04 in Rain Light Rain
3:54 PM 43.0 °F 38.2 °F 39.9 °F 89% 29.66 in 4.0 mi West 8.1 mph 17.3 mph 0.04 in Rain Light Rain
4:54 PM 43.0 °F 36.8 °F 39.0 °F 86% 29.68 in 7.0 mi West 11.5 mph 18.4 mph 0.05 in Rain Light Rain
5:54 PM 41.0 °F 34.7 °F 37.9 °F 89% 29.70 in 9.0 mi West 10.4 mph 21.9 mph 0.02 in Rain Light Rain
6:54 PM 39.9 °F 32.5 °F 36.0 °F 86% 29.73 in 10.0 mi West 12.7 mph - 0.02 in Rain Light Rain
7:54 PM 39.9 °F 29.7 °F 35.1 °F 83% 29.74 in 10.0 mi West 23.0 mph 32.2 mph 0.00 in Rain Light Rain
8:14 PM 39.2 °F 31.6 °F 35.6 °F 87% 29.72 in 10.0 mi West 12.7 mph 20.7 mph 0.01 in Rain Light Rain
8:54 PM 41.0 °F 35.2 °F 35.1 °F 79% 29.75 in 10.0 mi West 9.2 mph 24.2 mph 0.01 in   Overcast
9:54 PM 41.0 °F 32.5 °F 33.1 °F 73% 29.75 in 10.0 mi West 17.3 mph 27.6 mph 0.00 in   Overcast
10:54 PM 42.1 °F 33.9 °F 32.0 °F 67% 29.75 in 10.0 mi West 17.3 mph 27.6 mph 0.00 in   Overcast
11:54 PM 42.1 °F 33.1 °F 32.0 °F 67% 29.75 in 10.0 mi West 20.7 mph 32.2 mph N/A   Overcast